Weather History for KF46 - October, 2012

Change the Weather History Date:

Friday, October 5, 2012

  Actual Average (KDFW) Record (KDFW)
Temperature  
Mean Temperature 70 °F 71 °F  
Max Temperature 85 °F 82 °F 97 °F (1937)
Min Temperature 56 °F 60 °F 44 °F (1902)
Degree Days  
Heating Degree Days 0 1  
Month to date heating degree days 5  
Since 1 July heating degree days 11  
Cooling Degree Days 6 7  
Month to date cooling degree days 37  
Year to date cooling degree days 2614  
Growing Degree Days 20 (Base 50)    
Moisture  
Dew Point 64 °F    
Average Humidity 74    
Maximum Humidity 92    
Minimum Humidity 56    
Precipitation  
Precipitation 0.00 in 0.11 in 2.10 in (1903)
Month to date precipitation 0.49  
Year to date precipitation 27.15  
Snow  
Snow - 0.00 in 0.00 in ()
Month to date snowfall 0.0  
Since 1 July snowfall 0.0  
Since 1 September snowfall 0.0  
Snow Depth -    
Sea Level Pressure  
Sea Level Pressure 30.05 in    
Wind  
Wind Speed 9 mph ()    
Max Wind Speed 16 mph    
Max Gust Speed 24 mph    
Visibility 10.0 miles    
Events      
T = Trace of Precipitation, MM = Missing Value Source: Averaged Metar Reports

Daily Weather History Graph

Daily Weather History Graph

Search for Another Location

Airport or City:

Trip Planner

Search our weather history database for the weather conditions in past years. The results will help you decide how hot, cold, wet, or windy it might be!

Date:

Astronomy

Oct. 05, 2012 Rise Set
Actual Time 7:23 AM CDT 7:04 PM CDT
Civil Twilight 6:58 AM CDT 7:29 PM CDT
Nautical Twilight 6:29 AM CDT 7:57 PM CDT
Astronomical Twilight 6:01 AM CDT 8:26 PM CDT
Moon 10:43 PM CDT (10/5) 12:16 PM CDT (10/5)
Length of Visible Light 12h 30m
Length of Day
11h 41m
Waning Gibbous, 74% of the Moon is Illuminated
Oct 5
Waning Gibbous
Oct 8
Last Quarter
Oct 15
New
Oct 21
First Quarter
Oct 29
Full

Hourly Weather History & Observations

Time (CDT) Temp. Heat Index Dew Point Humidity Pressure Visibility Wind Dir Wind Speed Gust Speed Precip Events Conditions
12:15 AM 76.3 °F - 63.1 °F 64% 30.07 in 10.0 mi South 9.2 mph - N/A   Overcast
12:35 AM 76.1 °F - 63.5 °F 65% 30.07 in 10.0 mi South 9.2 mph - N/A   Mostly Cloudy
12:55 AM 75.6 °F - 63.5 °F 66% 30.06 in 10.0 mi South 8.1 mph - N/A   Mostly Cloudy
1:15 AM 75.4 °F - 63.9 °F 67% 30.07 in 10.0 mi South 8.1 mph - N/A   Mostly Cloudy
1:35 AM 75.2 °F - 63.9 °F 68% 30.07 in 10.0 mi South 11.5 mph - N/A   Overcast
1:55 AM 75.0 °F - 64.4 °F 69% 30.07 in 10.0 mi South 9.2 mph - N/A   Overcast
2:15 AM 74.8 °F - 64.9 °F 71% 30.07 in 10.0 mi South 9.2 mph - N/A   Overcast
2:35 AM 74.5 °F - 65.3 °F 73% 30.07 in 10.0 mi South 8.1 mph - N/A   Overcast
2:55 AM 73.9 °F - 65.3 °F 74% 30.07 in 10.0 mi South 9.2 mph - N/A   Overcast
3:15 AM 73.8 °F - 66.0 °F 77% 30.07 in 10.0 mi South 9.2 mph - N/A   Overcast
3:35 AM 73.6 °F - 66.2 °F 78% 30.07 in 10.0 mi South 6.9 mph - N/A   Overcast
3:55 AM 73.4 °F - 66.2 °F 78% 30.06 in 10.0 mi South 8.1 mph - N/A   Overcast
4:15 AM 72.9 °F - 66.2 °F 80% 30.06 in 10.0 mi South 9.2 mph - N/A   Overcast
4:55 AM 72.5 °F - 67.1 °F 83% 30.06 in 10.0 mi SSW 9.2 mph - N/A   Mostly Cloudy
5:15 AM 72.3 °F - 67.5 °F 85% 30.05 in 10.0 mi SSW 9.2 mph - N/A   Mostly Cloudy
5:35 AM 72.1 °F - 68.0 °F 87% 30.05 in 10.0 mi SSW 10.4 mph - N/A   Overcast
5:55 AM 72.0 °F - 68.0 °F 87% 30.05 in 10.0 mi South 8.1 mph - N/A   Overcast
6:15 AM 71.6 °F - 68.0 °F 88% 30.05 in 10.0 mi South 8.1 mph - N/A   Overcast
6:35 AM 71.6 °F - 68.2 °F 89% 30.06 in 10.0 mi SSW 8.1 mph - N/A   Overcast
6:55 AM 71.4 °F - 68.0 °F 89% 30.06 in 10.0 mi SSW 9.2 mph - N/A   Mostly Cloudy
7:15 AM 71.6 °F - 68.0 °F 88% 30.06 in 10.0 mi SSW 10.4 mph - N/A   Overcast
7:35 AM 71.6 °F - 68.4 °F 89% 30.07 in 10.0 mi SSW 8.1 mph - N/A   Overcast
7:55 AM 71.6 °F - 68.9 °F 91% 30.07 in 10.0 mi SSW 9.2 mph - N/A   Overcast
8:15 AM 72.0 °F - 69.3 °F 91% 30.06 in 10.0 mi SSW 11.5 mph - N/A   Overcast
8:35 AM 72.1 °F - 69.8 °F 92% 30.06 in 10.0 mi SSW 10.4 mph - N/A   Mostly Cloudy
8:55 AM 72.7 °F - 69.8 °F 91% 30.06 in 10.0 mi SSW 10.4 mph - N/A   Scattered Clouds
9:15 AM 74.5 °F - 70.5 °F 87% 30.06 in 10.0 mi SSW 11.5 mph - N/A   Mostly Cloudy
9:35 AM 74.3 °F - 70.3 °F 87% 30.07 in 10.0 mi SSW 12.7 mph 18.4 mph N/A   Overcast
9:55 AM 74.5 °F - 70.5 °F 87% 30.07 in 10.0 mi SW 13.8 mph - N/A   Overcast
10:15 AM 75.0 °F - 70.7 °F 86% 30.07 in 10.0 mi WSW 8.1 mph 16.1 mph N/A   Overcast
10:35 AM 75.4 °F - 70.5 °F 85% 30.07 in 10.0 mi WSW 12.7 mph 16.1 mph N/A   Overcast
10:55 AM 75.9 °F - 70.5 °F 83% 30.07 in 10.0 mi SW 10.4 mph 20.7 mph N/A   Overcast
11:15 AM 77.4 °F - 70.9 °F 80% 30.07 in 10.0 mi SW 9.2 mph - N/A   Overcast
11:35 AM 76.5 °F - 69.8 °F 80% 30.07 in 10.0 mi West 5.8 mph - N/A   Overcast
11:55 AM 77.0 °F - 69.8 °F 78% 30.07 in 10.0 mi West 6.9 mph - N/A   Overcast
12:15 PM 78.6 °F - 70.7 °F 77% 30.07 in 10.0 mi WSW 6.9 mph - N/A   Overcast
12:35 PM 80.6 °F 84.1 °F 70.3 °F 71% 30.06 in 10.0 mi West 10.4 mph - N/A   Scattered Clouds
12:55 PM 81.3 °F 85.2 °F 70.5 °F 70% 30.05 in 10.0 mi WNW 5.8 mph - N/A   Clear
1:15 PM 82.2 °F 86.2 °F 70.2 °F 67% 30.04 in 10.0 mi West 8.1 mph - N/A   Scattered Clouds
1:35 PM 82.9 °F 86.7 °F 69.6 °F 64% 30.03 in 10.0 mi West 8.1 mph - N/A   Scattered Clouds
1:55 PM 82.8 °F 86.0 °F 68.7 °F 62% 30.02 in 10.0 mi WSW 8.1 mph - N/A   Scattered Clouds
2:15 PM 84.2 °F 87.9 °F 68.7 °F 60% 30.01 in 10.0 mi West 4.6 mph - N/A   Mostly Cloudy
2:35 PM 84.9 °F 88.2 °F 68.0 °F 57% 30.00 in 10.0 mi WSW 10.4 mph - N/A   Scattered Clouds
2:55 PM 85.5 °F 88.8 °F 68.0 °F 56% 29.99 in 10.0 mi West 6.9 mph - N/A   Scattered Clouds
3:15 PM 85.1 °F 88.2 °F 67.8 °F 56% 29.98 in 10.0 mi West 6.9 mph - N/A   Scattered Clouds
3:35 PM 83.5 °F 86.0 °F 66.9 °F 57% 29.98 in 10.0 mi West 6.9 mph - N/A   Mostly Cloudy
3:55 PM 83.1 °F 85.7 °F 67.1 °F 58% 29.98 in 10.0 mi NW 8.1 mph - N/A   Overcast
4:15 PM 82.6 °F 85.1 °F 66.7 °F 59% 29.98 in 10.0 mi NNW 6.9 mph - N/A   Overcast
4:35 PM 81.7 °F 84.2 °F 66.9 °F 61% 29.97 in 10.0 mi NNW 6.9 mph - N/A   Overcast
4:55 PM 81.5 °F 83.7 °F 66.6 °F 60% 29.97 in 10.0 mi North 5.8 mph - N/A   Overcast
5:15 PM 79.3 °F - 64.9 °F 61% 29.98 in 10.0 mi North 8.1 mph - N/A   Overcast
5:35 PM 78.1 °F - 63.5 °F 61% 29.98 in 10.0 mi North 11.5 mph 17.3 mph N/A   Mostly Cloudy
6:15 PM 74.7 °F - 60.8 °F 62% 29.99 in 10.0 mi NE 12.7 mph 20.7 mph N/A   Mostly Cloudy
6:35 PM 73.0 °F - 59.9 °F 63% 30.00 in 10.0 mi NNE 11.5 mph 18.4 mph N/A   Mostly Cloudy
6:55 PM 71.4 °F - 58.3 °F 63% 30.00 in 10.0 mi NNE 11.5 mph 19.6 mph N/A   Overcast
7:15 PM 68.5 °F - 56.1 °F 64% 30.01 in 10.0 mi NE 13.8 mph 23.0 mph N/A   Overcast
7:35 PM 66.0 °F - 54.7 °F 67% 30.02 in 10.0 mi NE 15.0 mph 23.0 mph N/A   Scattered Clouds
7:55 PM 63.9 °F - 53.6 °F 69% 30.04 in 10.0 mi NNE 15.0 mph 21.9 mph N/A   Scattered Clouds
8:15 PM 61.7 °F - 52.7 °F 72% 30.05 in 10.0 mi NNE 12.7 mph 23.0 mph N/A   Scattered Clouds
8:35 PM 60.8 °F - 52.7 °F 75% 30.05 in 10.0 mi NNE 10.4 mph 16.1 mph N/A   Mostly Cloudy
9:15 PM 59.2 °F - 52.0 °F 77% 30.07 in 10.0 mi NNE 11.5 mph 18.4 mph N/A   Overcast
9:35 PM 58.8 °F - 51.8 °F 77% 30.07 in 10.0 mi NNE 9.2 mph 16.1 mph N/A   Overcast
9:55 PM 58.1 °F - 50.9 °F 77% 30.08 in 10.0 mi NNE 16.1 mph 21.9 mph N/A   Overcast
10:15 PM 57.6 °F - 50.4 °F 77% 30.09 in 10.0 mi NNE 13.8 mph 24.2 mph N/A   Overcast
10:35 PM 57.2 °F - 50.2 °F 77% 30.09 in 10.0 mi NNE 10.4 mph 19.6 mph N/A   Overcast
10:55 PM 56.8 °F - 49.5 °F 76% 30.09 in 10.0 mi NNE 15.0 mph 24.2 mph N/A   Overcast
11:15 PM 56.7 °F - 49.5 °F 77% 30.09 in 10.0 mi NE 12.7 mph 19.6 mph N/A   Overcast
11:35 PM 56.7 °F - 49.1 °F 76% 30.10 in 10.0 mi NNE 13.8 mph 18.4 mph N/A   Overcast
11:55 PM 56.3 °F - 48.7 °F 76% 30.10 in 10.0 mi NE 16.1 mph 21.9 mph N/A   Overcast